Year,Month,Day,Hour,Minute,Value (Times are PST for temperature in C)
2020,10,27,00,00,6.40
2020,10,27,00,01,6.40
2020,10,27,00,02,6.40
2020,10,27,00,03,6.40
2020,10,27,00,04,6.40
2020,10,27,00,05,6.40
2020,10,27,00,06,6.40
2020,10,27,00,07,6.40
2020,10,27,00,08,6.40
2020,10,27,00,09,6.40
2020,10,27,00,10,6.40
2020,10,27,00,11,6.40
2020,10,27,00,12,6.40
2020,10,27,00,13,6.40
2020,10,27,00,14,6.40
2020,10,27,00,15,6.40
2020,10,27,00,16,6.40
2020,10,27,00,17,6.40
2020,10,27,00,18,6.40
2020,10,27,00,19,6.30
2020,10,27,00,20,6.30
2020,10,27,00,21,6.30
2020,10,27,00,22,6.30
2020,10,27,00,23,6.30
2020,10,27,00,24,6.30
2020,10,27,00,25,6.30
2020,10,27,00,26,6.30
2020,10,27,00,27,6.30
2020,10,27,00,28,6.30
2020,10,27,00,29,6.30
2020,10,27,00,30,6.30
2020,10,27,00,31,6.30
2020,10,27,00,32,6.20
2020,10,27,00,33,6.30
2020,10,27,00,34,6.20
2020,10,27,00,35,6.20
2020,10,27,00,36,6.20
2020,10,27,00,37,6.20
2020,10,27,00,38,6.20
2020,10,27,00,39,6.20
2020,10,27,00,40,6.20
2020,10,27,00,41,6.20
2020,10,27,00,42,6.20
2020,10,27,00,43,6.20
2020,10,27,00,44,6.20
2020,10,27,00,45,6.20
2020,10,27,00,46,6.20
2020,10,27,00,47,6.20
2020,10,27,00,48,6.20
2020,10,27,00,49,6.20
2020,10,27,00,50,6.20
2020,10,27,00,51,6.20
2020,10,27,00,52,6.20
2020,10,27,00,53,6.20
2020,10,27,00,54,6.20
2020,10,27,00,55,6.20
2020,10,27,00,56,6.20
2020,10,27,00,57,6.20
2020,10,27,00,58,6.20
2020,10,27,00,59,6.20
2020,10,27,01,00,6.20
2020,10,27,01,01,6.20
2020,10,27,01,02,6.20
2020,10,27,01,03,6.20
2020,10,27,01,04,6.20
2020,10,27,01,05,6.20
2020,10,27,01,06,6.20
2020,10,27,01,07,6.20
2020,10,27,01,08,6.20
2020,10,27,01,09,6.20
2020,10,27,01,10,6.20
2020,10,27,01,11,6.20
2020,10,27,01,12,6.20
2020,10,27,01,13,6.20
2020,10,27,01,14,6.20
2020,10,27,01,15,6.20
2020,10,27,01,16,6.20
2020,10,27,01,17,6.20
2020,10,27,01,18,6.20
2020,10,27,01,19,6.20
2020,10,27,01,20,6.20
2020,10,27,01,21,6.20
2020,10,27,01,22,6.20
2020,10,27,01,23,6.20
2020,10,27,01,24,6.20
2020,10,27,01,25,6.20
2020,10,27,01,26,6.20
2020,10,27,01,27,6.20
2020,10,27,01,28,6.20
2020,10,27,01,29,6.20
2020,10,27,01,30,6.20
2020,10,27,01,31,6.20
2020,10,27,01,32,6.20
2020,10,27,01,33,6.20
2020,10,27,01,34,6.20
2020,10,27,01,35,6.20
2020,10,27,01,36,6.20
2020,10,27,01,37,6.20
2020,10,27,01,38,6.20
2020,10,27,01,39,6.20
2020,10,27,01,40,6.20
2020,10,27,01,41,6.20
2020,10,27,01,42,6.20
2020,10,27,01,43,6.20
2020,10,27,01,44,6.20
2020,10,27,01,45,6.20
2020,10,27,01,46,6.20
2020,10,27,01,47,6.20
2020,10,27,01,48,6.20
2020,10,27,01,49,6.20
2020,10,27,01,50,6.20
2020,10,27,01,51,6.20
2020,10,27,01,52,6.20
2020,10,27,01,53,6.20
2020,10,27,01,54,6.20
2020,10,27,01,55,6.20
2020,10,27,01,56,6.20
2020,10,27,01,57,6.20
2020,10,27,01,58,6.20
2020,10,27,01,59,6.20
2020,10,27,02,00,6.20
2020,10,27,02,01,6.20
2020,10,27,02,02,6.20
2020,10,27,02,03,6.20
2020,10,27,02,04,6.20
2020,10,27,02,05,6.20
2020,10,27,02,06,6.20
2020,10,27,02,07,6.20
2020,10,27,02,08,6.20
2020,10,27,02,09,6.20
2020,10,27,02,10,6.20
2020,10,27,02,11,6.20
2020,10,27,02,12,6.20
2020,10,27,02,13,6.20
2020,10,27,02,14,6.20
2020,10,27,02,15,6.20
2020,10,27,02,16,6.30
2020,10,27,02,17,6.30
2020,10,27,02,18,6.30
2020,10,27,02,19,6.30
2020,10,27,02,20,6.30
2020,10,27,02,21,6.30
2020,10,27,02,22,6.30
2020,10,27,02,23,6.30
2020,10,27,02,24,6.30
2020,10,27,02,25,6.30
2020,10,27,02,26,6.30
2020,10,27,02,27,6.30
2020,10,27,02,28,6.30
2020,10,27,02,29,6.30
2020,10,27,02,30,6.30
2020,10,27,02,31,6.30
2020,10,27,02,32,6.30
2020,10,27,02,33,6.30
2020,10,27,02,34,6.30
2020,10,27,02,35,6.30
2020,10,27,02,36,6.30
2020,10,27,02,37,6.30
2020,10,27,02,38,6.30
2020,10,27,02,39,6.30
2020,10,27,02,40,6.30
2020,10,27,02,41,6.30
2020,10,27,02,42,6.30
2020,10,27,02,43,6.30
2020,10,27,02,44,6.30
2020,10,27,02,45,6.30
2020,10,27,02,46,6.30
2020,10,27,02,47,6.30
2020,10,27,02,48,6.30
2020,10,27,02,49,6.30
2020,10,27,02,50,6.30
2020,10,27,02,51,6.30
2020,10,27,02,52,6.30
2020,10,27,02,53,6.30
2020,10,27,02,54,6.30
2020,10,27,02,55,6.30
2020,10,27,02,56,6.30
2020,10,27,02,57,6.30
2020,10,27,02,58,6.30
2020,10,27,02,59,6.30
2020,10,27,03,00,6.30
2020,10,27,03,01,6.30
2020,10,27,03,02,6.30
2020,10,27,03,03,6.30
2020,10,27,03,04,6.30
2020,10,27,03,05,6.30
2020,10,27,03,06,6.30
2020,10,27,03,07,6.30
2020,10,27,03,08,6.30
2020,10,27,03,09,6.30
2020,10,27,03,10,6.30
2020,10,27,03,11,6.30
2020,10,27,03,12,6.30
2020,10,27,03,13,6.30
2020,10,27,03,14,6.30
2020,10,27,03,15,6.30
2020,10,27,03,16,6.30
2020,10,27,03,17,6.30
2020,10,27,03,18,6.30
2020,10,27,03,19,6.30
2020,10,27,03,20,6.30
2020,10,27,03,21,6.30
2020,10,27,03,22,6.30
2020,10,27,03,23,6.30
2020,10,27,03,24,6.40
2020,10,27,03,25,6.40
2020,10,27,03,26,6.40
2020,10,27,03,27,6.40
2020,10,27,03,28,6.40
2020,10,27,03,29,6.40
2020,10,27,03,30,6.40
2020,10,27,03,31,6.40
2020,10,27,03,32,6.40
2020,10,27,03,33,6.40
2020,10,27,03,34,6.40
2020,10,27,03,35,6.40
2020,10,27,03,36,6.40
2020,10,27,03,37,6.40
2020,10,27,03,38,6.40
2020,10,27,03,39,6.40
2020,10,27,03,40,6.40
2020,10,27,03,41,6.40
2020,10,27,03,42,6.40
2020,10,27,03,43,6.40
2020,10,27,03,44,6.40
2020,10,27,03,45,6.40
2020,10,27,03,46,6.40
2020,10,27,03,47,6.40
2020,10,27,03,48,6.40
2020,10,27,03,49,6.40
2020,10,27,03,50,6.50
2020,10,27,03,51,6.50
2020,10,27,03,52,6.50
2020,10,27,03,53,6.40
2020,10,27,03,54,6.40
2020,10,27,03,55,6.50
2020,10,27,03,56,6.40
2020,10,27,03,57,6.40
2020,10,27,03,58,6.40
2020,10,27,03,59,6.50
2020,10,27,04,00,6.50
2020,10,27,04,01,6.50
2020,10,27,04,02,6.50
2020,10,27,04,03,6.50
2020,10,27,04,04,6.50
2020,10,27,04,05,6.50
2020,10,27,04,06,6.50
2020,10,27,04,07,6.50
2020,10,27,04,08,6.50
2020,10,27,04,09,6.50
2020,10,27,04,10,6.50
2020,10,27,04,11,6.50
2020,10,27,04,12,6.50
2020,10,27,04,13,6.50
2020,10,27,04,14,6.50
2020,10,27,04,15,6.50
2020,10,27,04,16,6.50
2020,10,27,04,17,6.50
2020,10,27,04,18,6.50
2020,10,27,04,19,6.50
2020,10,27,04,20,6.50
2020,10,27,04,21,6.50
2020,10,27,04,22,6.50
2020,10,27,04,23,6.40
2020,10,27,04,24,6.40
2020,10,27,04,25,6.40
2020,10,27,04,26,6.40
2020,10,27,04,27,6.40
2020,10,27,04,28,6.40
2020,10,27,04,29,6.40
2020,10,27,04,30,6.40
2020,10,27,04,31,6.40
2020,10,27,04,32,6.40
2020,10,27,04,33,6.40
2020,10,27,04,34,6.40
2020,10,27,04,35,6.40
2020,10,27,04,36,6.40
2020,10,27,04,37,6.40
2020,10,27,04,38,6.40
2020,10,27,04,39,6.40
2020,10,27,04,40,6.40
2020,10,27,04,41,6.40
2020,10,27,04,42,6.40
2020,10,27,04,43,6.40
2020,10,27,04,44,6.40
2020,10,27,04,45,6.40
2020,10,27,04,46,6.40
2020,10,27,04,47,6.40
2020,10,27,04,48,6.40
2020,10,27,04,49,6.40
2020,10,27,04,50,6.40
2020,10,27,04,51,6.40
2020,10,27,04,52,6.40
2020,10,27,04,53,6.40
2020,10,27,04,54,6.40
2020,10,27,04,55,6.40
2020,10,27,04,56,6.40
2020,10,27,04,57,6.50
2020,10,27,04,58,6.50
2020,10,27,04,59,6.50
2020,10,27,05,00,6.50
2020,10,27,05,01,6.50
2020,10,27,05,02,6.50
2020,10,27,05,03,6.50
2020,10,27,05,04,6.50
2020,10,27,05,05,6.50
2020,10,27,05,06,6.50
2020,10,27,05,07,6.50
2020,10,27,05,08,6.60
2020,10,27,05,09,6.60
2020,10,27,05,10,6.60
2020,10,27,05,11,6.60
2020,10,27,05,12,6.60
2020,10,27,05,13,6.60
2020,10,27,05,14,6.60
2020,10,27,05,15,6.60
2020,10,27,05,16,6.60
2020,10,27,05,17,6.60
2020,10,27,05,18,6.60
2020,10,27,05,19,6.60
2020,10,27,05,20,6.60
2020,10,27,05,21,6.60
2020,10,27,05,22,6.60
2020,10,27,05,23,6.60
2020,10,27,05,24,6.60
2020,10,27,05,25,6.60
2020,10,27,05,26,6.60
2020,10,27,05,27,6.60
2020,10,27,05,28,6.60
2020,10,27,05,29,6.60
2020,10,27,05,30,6.60
2020,10,27,05,31,6.60
2020,10,27,05,32,6.60
2020,10,27,05,33,6.60
2020,10,27,05,34,6.60
2020,10,27,05,35,6.60
2020,10,27,05,36,6.60
2020,10,27,05,37,6.60
2020,10,27,05,38,6.60
2020,10,27,05,39,6.60
2020,10,27,05,40,6.60
2020,10,27,05,41,6.60
2020,10,27,05,42,6.60
2020,10,27,05,43,6.60
2020,10,27,05,44,6.60
2020,10,27,05,45,6.60
2020,10,27,05,46,6.60
2020,10,27,05,47,6.60
2020,10,27,05,48,6.60
2020,10,27,05,49,6.60
2020,10,27,05,50,6.60
2020,10,27,05,51,6.60
2020,10,27,05,52,6.60
2020,10,27,05,53,6.60
2020,10,27,05,54,6.60
2020,10,27,05,55,6.60
2020,10,27,05,56,6.60
2020,10,27,05,57,6.60
2020,10,27,05,58,6.60
2020,10,27,05,59,6.60
2020,10,27,06,00,6.60
2020,10,27,06,01,6.60
2020,10,27,06,02,6.60
2020,10,27,06,03,6.60
2020,10,27,06,04,6.60
2020,10,27,06,05,6.60
2020,10,27,06,06,6.60
2020,10,27,06,07,6.60
2020,10,27,06,08,6.60
2020,10,27,06,09,6.60
2020,10,27,06,10,6.60
2020,10,27,06,11,6.60
2020,10,27,06,12,6.60
2020,10,27,06,13,6.60
2020,10,27,06,14,6.60
2020,10,27,06,15,6.60
2020,10,27,06,16,6.60
2020,10,27,06,17,6.60
2020,10,27,06,18,6.60
2020,10,27,06,19,6.60
2020,10,27,06,20,6.60
2020,10,27,06,21,6.60
2020,10,27,06,22,6.50
2020,10,27,06,23,6.50
2020,10,27,06,24,6.50
2020,10,27,06,25,6.50
2020,10,27,06,26,6.50
2020,10,27,06,27,6.50
2020,10,27,06,28,6.50
2020,10,27,06,29,6.50
2020,10,27,06,30,6.50
2020,10,27,06,31,6.40
2020,10,27,06,32,6.40
2020,10,27,06,33,6.40
2020,10,27,06,34,6.40
2020,10,27,06,35,6.40
2020,10,27,06,36,6.40
2020,10,27,06,37,6.40
2020,10,27,06,38,6.40
2020,10,27,06,39,6.40
2020,10,27,06,40,6.30
2020,10,27,06,41,6.30
2020,10,27,06,42,6.30
2020,10,27,06,43,6.30
2020,10,27,06,44,6.30
2020,10,27,06,45,6.30
2020,10,27,06,46,6.30
2020,10,27,06,47,6.30
2020,10,27,06,48,6.30
2020,10,27,06,49,6.30
2020,10,27,06,50,6.30
2020,10,27,06,51,6.30
2020,10,27,06,52,6.30
2020,10,27,06,53,6.30
2020,10,27,06,54,6.20
2020,10,27,06,55,6.20
2020,10,27,06,56,6.20
2020,10,27,06,57,6.20
2020,10,27,06,58,6.20
2020,10,27,06,59,6.20
2020,10,27,07,00,6.20
2020,10,27,07,01,6.20
2020,10,27,07,02,6.20
2020,10,27,07,03,6.20
2020,10,27,07,04,6.20
2020,10,27,10,11,6.70
2020,10,27,10,12,6.70
2020,10,27,10,13,6.80
2020,10,27,10,14,6.80
2020,10,27,10,15,6.80
2020,10,27,10,16,6.80
2020,10,27,10,17,6.80
2020,10,27,10,18,6.80
2020,10,27,10,19,6.80
2020,10,27,10,20,6.80
2020,10,27,10,21,6.80
2020,10,27,10,22,6.80
2020,10,27,10,23,6.80
2020,10,27,10,24,6.80
2020,10,27,10,25,6.80
2020,10,27,10,26,6.90
2020,10,27,10,27,6.90
2020,10,27,10,28,6.90
2020,10,27,10,29,6.90
2020,10,27,10,30,6.90
2020,10,27,10,31,6.90
2020,10,27,10,32,6.90
2020,10,27,10,33,6.90
2020,10,27,10,34,6.90
2020,10,27,10,35,6.90
2020,10,27,10,36,6.90
2020,10,27,10,37,6.90
2020,10,27,10,38,6.90
2020,10,27,10,39,6.90
2020,10,27,10,40,6.90
2020,10,27,10,41,6.90
2020,10,27,10,42,6.90
2020,10,27,10,43,6.80
2020,10,27,10,44,6.80
2020,10,27,10,45,6.80
2020,10,27,10,46,6.80
2020,10,27,10,47,6.80
2020,10,27,10,48,6.90
2020,10,27,10,49,6.90
2020,10,27,10,50,6.90
2020,10,27,10,51,6.90
2020,10,27,10,52,6.90
2020,10,27,10,53,6.90
2020,10,27,10,54,6.90
2020,10,27,10,55,6.90
2020,10,27,10,56,6.90
2020,10,27,10,57,7.00
2020,10,27,10,58,7.00
2020,10,27,10,59,7.00
2020,10,27,11,00,7.00
2020,10,27,11,01,7.10
2020,10,27,11,02,7.10
2020,10,27,11,03,7.10
2020,10,27,11,04,7.10
2020,10,27,11,05,7.10
2020,10,27,11,06,7.10
2020,10,27,11,07,7.10
2020,10,27,11,08,7.10
2020,10,27,11,09,7.10
2020,10,27,11,10,7.10
2020,10,27,11,11,7.10
2020,10,27,11,12,7.20
2020,10,27,11,13,7.20
2020,10,27,11,14,7.20
2020,10,27,11,15,7.20
2020,10,27,11,16,7.20
2020,10,27,11,17,7.20
2020,10,27,11,18,7.20
2020,10,27,11,19,7.20
2020,10,27,11,20,7.30
2020,10,27,11,21,7.30
2020,10,27,11,22,7.30
2020,10,27,11,23,7.40
2020,10,27,11,24,7.40
2020,10,27,11,25,7.50
2020,10,27,11,26,7.50
2020,10,27,11,27,7.60
2020,10,27,11,28,7.60
2020,10,27,11,29,7.60
2020,10,27,11,30,7.70
2020,10,27,11,31,7.70
2020,10,27,11,32,7.70
2020,10,27,11,33,7.70
2020,10,27,11,34,7.80
2020,10,27,11,35,7.80
2020,10,27,11,36,7.80
2020,10,27,11,37,7.80
2020,10,27,11,38,7.90
2020,10,27,11,39,7.90
2020,10,27,11,40,7.90
2020,10,27,11,41,7.90
2020,10,27,11,42,7.90
2020,10,27,11,43,7.90
2020,10,27,11,44,7.90
2020,10,27,11,45,7.90
2020,10,27,11,46,8.00
2020,10,27,11,47,8.00
2020,10,27,11,48,8.00
2020,10,27,11,49,8.00
2020,10,27,11,50,8.00
2020,10,27,11,51,8.00
2020,10,27,11,52,8.10
2020,10,27,11,53,8.10
2020,10,27,11,54,8.10
2020,10,27,11,55,8.10
2020,10,27,11,56,8.10
2020,10,27,11,57,8.10
2020,10,27,11,58,8.10
2020,10,27,11,59,8.10
2020,10,27,12,00,8.10
2020,10,27,12,01,8.10
2020,10,27,12,02,8.20
2020,10,27,12,03,8.20
2020,10,27,12,04,8.20
2020,10,27,12,05,8.20
2020,10,27,12,06,8.20
2020,10,27,12,07,8.20
2020,10,27,12,08,8.20
2020,10,27,12,09,8.30
2020,10,27,12,10,8.30
2020,10,27,12,11,8.30
2020,10,27,12,12,8.30
2020,10,27,12,13,8.30
2020,10,27,12,14,8.30
2020,10,27,12,15,8.30
2020,10,27,12,16,8.30
2020,10,27,12,17,8.30
2020,10,27,12,18,8.30
2020,10,27,12,19,8.30
2020,10,27,12,20,8.30
2020,10,27,12,21,8.30
2020,10,27,12,22,8.30
2020,10,27,12,23,8.30
2020,10,27,12,24,8.40
2020,10,27,12,25,8.40
2020,10,27,12,26,8.40
2020,10,27,12,27,8.40
2020,10,27,12,28,8.40
2020,10,27,12,29,8.40
2020,10,27,12,30,8.40
2020,10,27,12,31,8.40
2020,10,27,12,32,8.40
2020,10,27,12,33,8.40
2020,10,27,12,34,8.40
2020,10,27,12,35,8.40
2020,10,27,12,36,8.40
2020,10,27,12,37,8.40
2020,10,27,12,38,8.40
2020,10,27,12,39,8.40
2020,10,27,12,40,8.40
2020,10,27,12,41,8.40
2020,10,27,12,42,8.40
2020,10,27,12,43,8.40
2020,10,27,12,44,8.40
2020,10,27,12,45,8.40
2020,10,27,12,46,8.40
2020,10,27,12,47,8.40
2020,10,27,12,48,8.40
2020,10,27,12,49,8.40
2020,10,27,12,50,8.40
2020,10,27,12,51,8.50
2020,10,27,12,52,8.50
2020,10,27,12,53,8.50
2020,10,27,12,54,8.50
2020,10,27,12,55,8.50
2020,10,27,12,56,8.60
2020,10,27,12,57,8.60
2020,10,27,12,58,8.60
2020,10,27,12,59,8.60
2020,10,27,13,00,8.60
2020,10,27,13,01,8.60
2020,10,27,13,02,8.60
2020,10,27,13,03,8.60
2020,10,27,13,04,8.60
2020,10,27,13,05,8.60
2020,10,27,13,06,8.60
2020,10,27,13,07,8.50
2020,10,27,13,08,8.50
2020,10,27,13,09,8.50
2020,10,27,13,10,8.50
2020,10,27,13,11,8.50
2020,10,27,13,12,8.50
2020,10,27,13,13,8.50
2020,10,27,13,14,8.50
2020,10,27,13,15,8.50
2020,10,27,13,16,8.50
2020,10,27,13,17,8.50
2020,10,27,13,18,8.50
2020,10,27,13,19,8.50
2020,10,27,13,20,8.50
2020,10,27,13,21,8.50
2020,10,27,13,22,8.50
2020,10,27,13,23,8.50
2020,10,27,13,24,8.50
2020,10,27,13,25,8.50
2020,10,27,13,26,8.60
2020,10,27,13,27,8.60
2020,10,27,13,28,8.60
2020,10,27,13,29,8.60
2020,10,27,13,30,8.60
2020,10,27,13,31,8.70
2020,10,27,13,32,8.70
2020,10,27,13,33,8.70
2020,10,27,13,34,8.70
2020,10,27,13,35,8.70
2020,10,27,13,36,8.70
2020,10,27,13,37,8.70
2020,10,27,13,38,8.70
2020,10,27,13,39,8.70
2020,10,27,13,40,8.80
2020,10,27,13,41,8.80
2020,10,27,13,42,8.80
2020,10,27,13,43,8.80
2020,10,27,13,44,8.80
2020,10,27,13,45,8.80
2020,10,27,13,46,8.80
2020,10,27,13,47,8.80
2020,10,27,13,48,8.80
2020,10,27,13,49,8.80
2020,10,27,13,50,8.80
2020,10,27,13,51,8.80
2020,10,27,13,52,8.80
2020,10,27,13,53,8.70
2020,10,27,13,54,8.70
2020,10,27,13,55,8.70
2020,10,27,13,56,8.70
2020,10,27,13,57,8.70
2020,10,27,13,58,8.70
2020,10,27,13,59,8.70
2020,10,27,14,00,8.70
2020,10,27,14,01,8.70
2020,10,27,14,02,8.70
2020,10,27,14,03,8.70
2020,10,27,14,04,8.70
2020,10,27,14,05,8.70
2020,10,27,14,06,8.70
2020,10,27,14,07,8.70
2020,10,27,14,08,8.70
2020,10,27,14,09,8.70
2020,10,27,14,10,8.70
2020,10,27,14,11,8.70
2020,10,27,14,12,8.70
2020,10,27,14,13,8.80
2020,10,27,14,14,8.80
2020,10,27,14,15,8.80
2020,10,27,14,16,8.80
2020,10,27,14,17,8.80
2020,10,27,14,18,8.80
2020,10,27,14,19,8.80
2020,10,27,14,20,8.80
2020,10,27,14,21,8.80
2020,10,27,14,22,8.80
2020,10,27,14,23,8.90
2020,10,27,14,24,8.90
2020,10,27,14,25,8.90
2020,10,27,14,26,8.90
2020,10,27,14,27,8.90
2020,10,27,14,28,8.90
2020,10,27,14,29,8.90
2020,10,27,14,30,8.90
2020,10,27,14,31,8.90
2020,10,27,14,32,8.90
2020,10,27,14,33,8.90
2020,10,27,14,34,8.90
2020,10,27,14,35,8.90
2020,10,27,14,36,8.90
2020,10,27,14,37,8.90
2020,10,27,14,38,8.90
2020,10,27,14,39,8.90
2020,10,27,14,40,8.90
2020,10,27,14,41,8.90
2020,10,27,14,42,8.90
2020,10,27,14,43,8.90
2020,10,27,14,44,8.90
2020,10,27,14,45,8.90
2020,10,27,14,46,8.90
2020,10,27,14,47,9.00
2020,10,27,14,48,9.00
2020,10,27,14,49,9.00
2020,10,27,14,50,9.00
2020,10,27,14,51,9.00
2020,10,27,14,52,9.00
2020,10,27,14,53,9.00
2020,10,27,14,54,9.00
2020,10,27,14,55,9.00
2020,10,27,14,56,9.00
2020,10,27,14,57,9.00
2020,10,27,14,58,9.00
2020,10,27,14,59,9.00
2020,10,27,15,00,9.00
2020,10,27,15,01,9.00
2020,10,27,15,02,9.00
2020,10,27,15,03,9.00
2020,10,27,15,04,9.00
2020,10,27,15,05,9.10
2020,10,27,15,06,9.10
2020,10,27,15,07,9.10
2020,10,27,15,08,9.10
2020,10,27,15,09,9.10
2020,10,27,15,10,9.10
2020,10,27,15,11,9.10
2020,10,27,15,12,9.00
2020,10,27,15,13,9.00
2020,10,27,15,14,9.00
2020,10,27,15,15,8.90
2020,10,27,15,16,8.90
2020,10,27,15,17,8.90
2020,10,27,15,18,8.90
2020,10,27,15,19,8.90
2020,10,27,15,20,8.90
2020,10,27,15,21,8.90
2020,10,27,15,22,8.80
2020,10,27,15,23,8.80
2020,10,27,15,24,8.80
2020,10,27,15,25,8.80
2020,10,27,15,26,8.80
2020,10,27,15,27,8.80
2020,10,27,15,28,8.80
2020,10,27,15,29,8.80
2020,10,27,15,30,8.80
2020,10,27,15,31,8.90
2020,10,27,15,32,8.90
2020,10,27,15,33,8.90
2020,10,27,15,34,8.90
2020,10,27,15,35,8.90
2020,10,27,15,36,8.90
2020,10,27,15,37,8.80
2020,10,27,15,38,8.80
2020,10,27,15,39,8.80
2020,10,27,15,40,8.80
2020,10,27,15,41,8.80
2020,10,27,15,42,8.80
2020,10,27,15,43,8.80
2020,10,27,15,44,8.80
2020,10,27,15,45,8.80
2020,10,27,15,46,8.80
2020,10,27,15,47,8.80
2020,10,27,15,48,8.80
2020,10,27,15,49,8.80
2020,10,27,15,50,8.80
2020,10,27,15,51,8.80
2020,10,27,15,52,8.80
2020,10,27,15,53,8.80
2020,10,27,15,54,8.80
2020,10,27,15,55,8.80
2020,10,27,15,56,8.80
2020,10,27,15,57,8.80
2020,10,27,15,58,8.80
2020,10,27,15,59,8.80
2020,10,27,16,00,8.80
2020,10,27,16,01,8.80
2020,10,27,16,02,8.80
2020,10,27,16,03,8.80
2020,10,27,16,04,8.80
2020,10,27,16,05,8.80
2020,10,27,16,06,8.80
2020,10,27,16,07,8.80
2020,10,27,16,08,8.80
2020,10,27,16,09,8.80
2020,10,27,16,10,8.80
2020,10,27,16,11,8.80
2020,10,27,16,12,8.80
2020,10,27,16,13,8.80
2020,10,27,16,14,8.80
2020,10,27,16,15,8.80
2020,10,27,16,16,8.80
2020,10,27,16,17,8.80
2020,10,27,16,18,8.80
2020,10,27,16,19,8.80
2020,10,27,16,20,8.80
2020,10,27,16,21,8.80
2020,10,27,16,22,8.80
2020,10,27,16,23,8.80
2020,10,27,16,24,8.80
2020,10,27,16,25,8.80
2020,10,27,16,26,8.80
2020,10,27,16,27,8.80
2020,10,27,16,28,8.80
2020,10,27,16,29,8.80
2020,10,27,16,30,8.80
2020,10,27,16,31,8.80
2020,10,27,16,32,8.80
2020,10,27,16,33,8.80
2020,10,27,16,34,8.80
2020,10,27,16,35,8.80
2020,10,27,16,36,8.70
2020,10,27,16,37,8.70
2020,10,27,16,38,8.80
2020,10,27,16,39,8.70
2020,10,27,16,40,8.80
2020,10,27,16,41,8.80
2020,10,27,16,42,8.80
2020,10,27,16,43,8.80
2020,10,27,16,44,8.80
2020,10,27,16,45,8.80
2020,10,27,16,46,8.80
2020,10,27,16,47,8.80
2020,10,27,16,48,8.80
2020,10,27,16,49,8.80
2020,10,27,16,50,8.80
2020,10,27,16,51,8.80
2020,10,27,16,52,8.80
2020,10,27,16,53,8.80
2020,10,27,16,54,8.80
2020,10,27,16,55,8.80
2020,10,27,16,56,8.80
2020,10,27,16,57,8.80
2020,10,27,16,58,8.80
2020,10,27,16,59,8.80
2020,10,27,17,00,8.80
2020,10,27,17,01,8.80
2020,10,27,17,02,8.80
2020,10,27,17,03,8.80
2020,10,27,17,04,8.80
2020,10,27,17,05,8.80
2020,10,27,17,06,8.80
2020,10,27,17,07,8.80
2020,10,27,17,08,8.80
2020,10,27,17,09,8.80
2020,10,27,17,10,8.80
2020,10,27,17,11,8.80
2020,10,27,17,12,8.80
2020,10,27,17,13,8.80
2020,10,27,17,14,8.80
2020,10,27,17,15,8.80
2020,10,27,17,16,8.80
2020,10,27,17,17,8.80
2020,10,27,17,18,8.80
2020,10,27,17,19,8.80
2020,10,27,17,20,8.80
2020,10,27,17,21,8.80
2020,10,27,17,22,8.80
2020,10,27,17,23,8.80
2020,10,27,17,24,8.80
2020,10,27,17,25,8.80
2020,10,27,17,26,8.80
2020,10,27,17,27,8.80
2020,10,27,17,28,8.80
2020,10,27,17,29,8.80
2020,10,27,17,30,8.80
2020,10,27,17,31,8.80
2020,10,27,17,32,8.80
2020,10,27,17,33,8.80
2020,10,27,17,34,8.80
2020,10,27,17,35,8.80
2020,10,27,17,36,8.80
2020,10,27,17,37,8.80
2020,10,27,17,38,8.80
2020,10,27,17,39,8.80
2020,10,27,17,40,8.80
2020,10,27,17,41,8.80
2020,10,27,17,42,8.80
2020,10,27,17,43,8.80
2020,10,27,17,44,8.80
2020,10,27,17,45,8.80
2020,10,27,17,46,8.80
2020,10,27,17,47,8.80
2020,10,27,17,48,8.80
2020,10,27,17,49,8.80
2020,10,27,17,50,8.80
2020,10,27,17,51,8.80
2020,10,27,17,52,8.80
2020,10,27,17,53,8.80
2020,10,27,17,54,8.80
2020,10,27,17,55,8.80
2020,10,27,17,56,8.80
2020,10,27,17,57,8.80
2020,10,27,17,58,8.90
2020,10,27,17,59,8.90
2020,10,27,18,00,8.90
2020,10,27,18,01,8.90
2020,10,27,18,02,8.90
2020,10,27,18,03,8.90
2020,10,27,18,04,8.90
2020,10,27,18,05,8.90
2020,10,27,18,06,8.90
2020,10,27,18,07,8.90
2020,10,27,18,08,8.90
2020,10,27,18,09,8.90
2020,10,27,18,10,8.90
2020,10,27,18,11,8.90
2020,10,27,18,12,8.90
2020,10,27,18,13,8.90
2020,10,27,18,14,8.90
2020,10,27,18,15,8.90
2020,10,27,18,16,8.90
2020,10,27,18,17,8.90
2020,10,27,18,18,8.90
2020,10,27,18,19,8.90
2020,10,27,18,20,8.90
2020,10,27,18,21,8.90
2020,10,27,18,22,8.90
2020,10,27,18,23,8.90
2020,10,27,18,24,8.90
2020,10,27,18,25,8.90
2020,10,27,18,26,8.90
2020,10,27,18,27,8.90
2020,10,27,18,28,8.90
2020,10,27,18,29,8.90
2020,10,27,18,30,8.90
2020,10,27,18,31,8.90
2020,10,27,18,32,8.90
2020,10,27,18,33,8.90
2020,10,27,18,34,8.90
2020,10,27,18,35,8.90
2020,10,27,18,36,8.90
2020,10,27,18,37,8.90
2020,10,27,18,38,8.90
2020,10,27,18,39,8.90
2020,10,27,18,40,8.90
2020,10,27,18,41,8.90
2020,10,27,18,42,8.90
2020,10,27,18,43,8.90
2020,10,27,18,44,8.90
2020,10,27,18,45,8.90
2020,10,27,18,46,8.90
2020,10,27,18,47,8.90
2020,10,27,18,48,8.90
2020,10,27,18,49,8.90
2020,10,27,18,50,8.90
2020,10,27,18,51,8.90
2020,10,27,18,52,9.00
2020,10,27,18,53,9.00
2020,10,27,18,54,9.00
2020,10,27,18,55,9.00
2020,10,27,18,56,9.00
2020,10,27,18,57,9.00
2020,10,27,18,58,9.00
2020,10,27,18,59,9.00
2020,10,27,19,00,9.00
2020,10,27,19,01,9.00
2020,10,27,19,02,9.00
2020,10,27,19,03,9.00
2020,10,27,19,04,9.00
2020,10,27,19,05,9.00
2020,10,27,19,06,9.00
2020,10,27,19,07,9.00
2020,10,27,19,08,9.00
2020,10,27,19,09,9.00
2020,10,27,19,10,9.00
2020,10,27,19,11,9.00
2020,10,27,19,12,9.10
2020,10,27,19,13,9.10
2020,10,27,19,14,9.10
2020,10,27,19,15,9.10
2020,10,27,19,16,9.10
2020,10,27,19,17,9.10
2020,10,27,19,18,9.10
2020,10,27,19,19,9.10
2020,10,27,19,20,9.10
2020,10,27,19,21,9.10
2020,10,27,19,22,9.10
2020,10,27,19,23,9.10
2020,10,27,19,24,9.10
2020,10,27,19,25,9.10
2020,10,27,19,26,9.10
2020,10,27,19,27,9.10
2020,10,27,19,28,9.10
2020,10,27,19,29,9.10
2020,10,27,19,30,9.10
2020,10,27,19,31,9.10
2020,10,27,19,32,9.10
2020,10,27,19,33,9.10
2020,10,27,19,34,9.10
2020,10,27,19,35,9.10
2020,10,27,19,36,9.10
2020,10,27,19,37,9.10
2020,10,27,19,38,9.10
2020,10,27,19,39,9.00
2020,10,27,19,40,9.10
2020,10,27,19,41,9.00
2020,10,27,19,42,9.10
2020,10,27,19,43,9.00
2020,10,27,19,44,9.10
2020,10,27,19,45,9.00
2020,10,27,19,46,9.00
2020,10,27,19,47,9.00
2020,10,27,19,48,9.00
2020,10,27,19,49,9.00
2020,10,27,19,50,9.00
2020,10,27,19,51,9.00
2020,10,27,19,52,9.00
2020,10,27,19,53,9.00
2020,10,27,19,54,9.00
2020,10,27,19,55,9.00
2020,10,27,19,56,9.00
2020,10,27,19,57,9.00
2020,10,27,19,58,9.00
2020,10,27,19,59,9.00
2020,10,27,20,00,9.00
2020,10,27,20,01,9.00
2020,10,27,20,02,9.00
2020,10,27,20,03,9.00
2020,10,27,20,04,9.00
2020,10,27,20,05,9.00
2020,10,27,20,06,9.00
2020,10,27,20,07,9.00
2020,10,27,20,08,9.00
2020,10,27,20,09,9.00
2020,10,27,20,10,9.00
2020,10,27,20,11,9.00
2020,10,27,20,12,9.00
2020,10,27,20,13,9.00
2020,10,27,20,14,9.00
2020,10,27,20,15,9.00
2020,10,27,20,16,9.00
2020,10,27,20,17,9.00
2020,10,27,20,18,9.00
2020,10,27,20,19,9.00
2020,10,27,20,20,9.00
2020,10,27,20,21,9.00
2020,10,27,20,22,9.00
2020,10,27,20,23,9.00
2020,10,27,20,24,9.00
2020,10,27,20,25,9.00
2020,10,27,20,26,9.00
2020,10,27,20,27,9.00
2020,10,27,20,28,9.00
2020,10,27,20,29,9.10
2020,10,27,20,30,9.10
2020,10,27,20,31,9.10
2020,10,27,20,32,9.10
2020,10,27,20,33,9.10
2020,10,27,20,34,9.10
2020,10,27,20,35,9.10
2020,10,27,20,36,9.10
2020,10,27,20,37,9.10
2020,10,27,20,38,9.10
2020,10,27,20,39,9.10
2020,10,27,20,40,9.10
2020,10,27,20,41,9.10
2020,10,27,20,42,9.10
2020,10,27,20,43,9.10
2020,10,27,20,44,9.10
2020,10,27,20,45,9.10
2020,10,27,20,46,9.10
2020,10,27,20,47,9.10
2020,10,27,20,48,9.20
2020,10,27,20,49,9.20
2020,10,27,20,50,9.20
2020,10,27,20,51,9.20
2020,10,27,20,52,9.20
2020,10,27,20,53,9.20
2020,10,27,20,54,9.20
2020,10,27,20,55,9.20
2020,10,27,20,56,9.30
2020,10,27,20,57,9.30
2020,10,27,20,58,9.30
2020,10,27,20,59,9.30
2020,10,27,21,00,9.30
2020,10,27,21,01,9.30
2020,10,27,21,02,9.30
2020,10,27,21,03,9.30
2020,10,27,21,04,9.30
2020,10,27,21,05,9.30
2020,10,27,21,06,9.30
2020,10,27,21,07,9.40
2020,10,27,21,08,9.40
2020,10,27,21,09,9.40
2020,10,27,21,10,9.40
2020,10,27,21,11,9.40
2020,10,27,21,12,9.40